STARLINK-11602 [DTC] (63183 NORAD) Tracking and Keplerian Element Data

This shows tracking and keplerian element data for the satellite.

Feedback or suggestion? Click here.




ElementValue
Catalog63183
NameSTARLINK-11602 [DTC]
Epoch Orbit4564
Epoch Day354.24871612
Epoch Year2025
RAAN79.0592
Inclination43.0006
Eccentricity0.0001946
Argument of Perigee259.403
Mean Anonmoly100.6619
Mean Motion15.70907672
Decay Rate0.00163992
L11 63183U 25048A 25354.24871612 .00163992 00000+0 12529-2 0 9990
L22 63183 43.0006 79.0592 0001946 259.4030 100.6619 15.70907672 45647



Live tracking and technical data element details for STARLINK-11602 [DTC] (NORAD 63183). STARLINK-11602 [DTC] can be tracked NOW for your location showing map with azimuth and elevation plus other details from your city location.







IsCatalogInMostPopularTable: catalog: 63183, numindb: 2
Update: records affected: 1



GetName: 63183 STARLINK-11602 [DTC]

Hit Count: updated at: Sun, 08 Feb 2026 17:04:49 GMT